Greybull, WY

5:54 AM MST on December 15, 2019 (GMT -0700)
South Big Horn County

Weather History for KGEY - October, 2019

Change the Weather History Date:

Saturday, October 26, 2019

  Actual Average Record
Temperature  
Mean Temperature 34 °F 42 °F  
Max Temperature 39 °F 56 °F 76 °F (1999)
Min Temperature 28 °F 28 °F 18 °F (2001)
Degree Days  
Heating Degree Days 31 23  
Month to date heating degree days 594 468  
Since 1 July heating degree days 769 699  
Cooling Degree Days 0 0  
Month to date cooling degree days 0 0  
Year to date cooling degree days 733 669  
Moisture  
Dew Point 25 °F    
Average Humidity 70    
Maximum Humidity 89    
Minimum Humidity 52    
Precipitation  
Precipitation T in 0.01 in 0.03 in (1954)
Month to date precipitation 0.61 0.55  
Year to date precipitation 7.93 6.88  
Sea Level Pressure  
Sea Level Pressure 29.94 in    
Wind  
Wind Speed 13 mph ()    
Max Wind Speed 40 mph    
Max Gust Speed 52 mph    
Visibility 9.9 miles    
Events Snow    
T = Trace of Precipitation, MM = Missing Value Source: Averaged Metar Reports

Daily Weather History Graph

Daily Weather History Graph

Search for Another Location

Airport or City:

Astronomy

Oct. 26, 2019 Rise Set
Actual Time 7:41 AM MDT 6:10 PM MDT
Civil Twilight 7:11 AM MDT 6:40 PM MDT
Nautical Twilight 6:37 AM MDT 7:14 PM MDT
Astronomical Twilight 6:03 AM MDT 7:47 PM MDT
Moon 5:33 AM MDT (10/26) 5:53 PM MDT (10/26)
Length of Visible Light 11h 28m
Length of Day
10h 28m
Waning Crescent, 3% of the Moon is Illuminated
Oct 26
Waning Crescent
Oct 27
New
Nov 4
First Quarter
Nov 12
Full
Nov 19
Last Quarter

Hourly Weather History & Observations

Time (MDT) Temp. Windchill Dew Point Humidity Pressure Visibility Wind Dir Wind Speed Gust Speed Precip Events Conditions
12:53 AM 39.0 °F - 32.0 °F 76% 29.82 in 10.0 mi Calm Calm - N/A   Clear
1:53 AM 39.0 °F 36.8 °F 30.9 °F 73% 29.80 in 10.0 mi Variable 3.5 mph - N/A   Clear
2:53 AM 34.0 °F - 30.0 °F 85% 29.79 in 10.0 mi Calm Calm - N/A   Clear
3:53 AM 35.1 °F 31.0 °F 30.0 °F 82% 29.75 in 10.0 mi NNE 4.6 mph - N/A   Partly Cloudy
4:53 AM 34.0 °F - 30.9 °F 89% 29.75 in 10.0 mi Calm Calm - N/A   Mostly Cloudy
5:53 AM 33.1 °F 27.7 °F 30.0 °F 89% 29.72 in 10.0 mi SSE 5.8 mph - N/A   Scattered Clouds
6:53 AM 39.9 °F 32.1 °F 30.9 °F 70% 29.74 in 10.0 mi WNW 13.8 mph - N/A   Clear
7:00 AM 37.9 °F 32.7 °F 30.9 °F 76% 29.75 in 10.0 mi North 6.9 mph - N/A   Clear
7:53 AM 37.9 °F 27.3 °F 30.0 °F 73% 29.77 in 10.0 mi WNW 21.9 mph 28.8 mph N/A   Mostly Cloudy
8:53 AM 37.9 °F 26.6 °F 28.0 °F 68% 29.82 in 10.0 mi NW 25.3 mph 34.5 mph N/A   Mostly Cloudy
9:53 AM 37.9 °F 24.7 °F 24.1 °F 57% 29.83 in 10.0 mi NNW 35.7 mph 44.9 mph N/A   Mostly Cloudy
10:53 AM 37.0 °F 24.5 °F 21.9 °F 54% 29.88 in 10.0 mi NNW 29.9 mph 46.0 mph N/A   Overcast
11:53 AM 34.0 °F 20.8 °F 24.1 °F 67% 29.96 in 10.0 mi NNW 27.6 mph 38.0 mph N/A   Overcast
12:03 PM 33.1 °F 20.1 °F 25.0 °F 72% 29.92 in 10.0 mi NNW 25.3 mph 36.8 mph 0.00 in Snow Light Snow
12:53 PM 34.0 °F 23.4 °F 27.0 °F 75% 29.99 in 9.0 mi NNW 17.3 mph 26.5 mph 0.00 in Snow Light Snow
1:53 PM 32.0 °F 19.5 °F 26.1 °F 79% 30.00 in 9.0 mi NNW 21.9 mph 33.4 mph 0.00 in Snow Light Snow
2:53 PM 33.1 °F 20.1 °F 25.0 °F 72% 30.01 in 9.0 mi NNW 25.3 mph 34.5 mph 0.00 in Snow Light Snow
3:53 PM 33.1 °F 19.3 °F 21.9 °F 64% 30.04 in 10.0 mi NNW 28.8 mph 39.1 mph 0.00 in   Overcast
4:53 PM 32.0 °F 18.4 °F 21.0 °F 64% 30.07 in 10.0 mi NNW 26.5 mph 35.7 mph N/A   Overcast
5:53 PM 32.0 °F 18.1 °F 19.9 °F 61% 30.09 in 10.0 mi NNW 27.6 mph 40.3 mph N/A   Overcast
6:53 PM 30.9 °F 16.9 °F 19.0 °F 61% 30.11 in 10.0 mi NNW 26.5 mph 34.5 mph N/A   Overcast
7:53 PM 30.9 °F 17.5 °F 18.0 °F 59% 30.12 in 10.0 mi NNW 24.2 mph 36.8 mph N/A   Overcast
8:53 PM 30.9 °F 16.7 °F 19.0 °F 61% 30.13 in 10.0 mi NNW 27.6 mph 36.8 mph N/A   Overcast
9:53 PM 30.9 °F 18.7 °F 18.0 °F 59% 30.15 in 10.0 mi NNW 19.6 mph 31.1 mph N/A   Overcast
10:53 PM 30.0 °F 16.9 °F 19.0 °F 64% 30.18 in 10.0 mi NNW 21.9 mph 32.2 mph N/A   Overcast
11:53 PM 28.9 °F 16.9 °F 21.0 °F 72% 30.22 in 10.0 mi NW 17.3 mph - N/A   Overcast